Rochelle, IL

10:24 AM CDT on April 27, 2017 (GMT -0500)
Rochelle

Weather History for KRPJ - November, 2012

Change the Weather History Date:

Sunday, November 4, 2012

  Actual Average (KRFD) Record (KRFD)
Temperature  
Mean Temperature 36 °F -  
Max Temperature 47 °F 48 °F 74 °F (1978)
Min Temperature 24 °F 33 °F 10 °F (1951)
Degree Days  
Heating Degree Days 30    
Moisture  
Dew Point 29 °F    
Average Humidity 78    
Maximum Humidity 97    
Minimum Humidity 51    
Precipitation  
Precipitation 0.00 in - - ()
Sea Level Pressure  
Sea Level Pressure 30.21 in    
Wind  
Wind Speed 2 mph (NNE)    
Max Wind Speed 8 mph    
Max Gust Speed -    
Visibility 10 miles    
Events      
Averages and records for this station are not official NWS values.
T = Trace of Precipitation, MM = Missing Value Source: NWS Daily Summary

Daily Weather History Graph

Daily Weather History Graph

Search for Another Location

Airport or City:

Trip Planner

Search our weather history database for the weather conditions in past years. The results will help you decide how hot, cold, wet, or windy it might be!

Date:

Astronomy

Nov. 04, 2012 Rise Set
Actual Time 6:33 AM CST 4:46 PM CST
Civil Twilight 6:03 AM CST 5:15 PM CST
Nautical Twilight 5:30 AM CST 5:48 PM CST
Astronomical Twilight 4:58 AM CST 6:21 PM CST
Moon 9:23 PM CST (11/4) 11:17 AM CST (11/4)
Length of Visible Light 11h 11m
Length of Day
10h 13m
Waning Gibbous, 72% of the Moon is Illuminated
Nov 4
Waning Gibbous
Nov 6
Last Quarter
Nov 13
New
Nov 20
First Quarter
Nov 28
Full

Hourly Weather History & Observations

Time (CST) Temp. Windchill Dew Point Humidity Pressure Visibility Wind Dir Wind Speed Gust Speed Precip Events Conditions
12:15 AM 26.2 °F - 24.8 °F 94% 30.22 in 10.0 mi Calm Calm - N/A   Clear
12:35 AM 26.6 °F - 25.2 °F 94% 30.22 in 10.0 mi Calm Calm - N/A   Clear
12:55 AM 27.1 °F - 25.5 °F 94% 30.22 in 10.0 mi Calm Calm - N/A   Mostly Cloudy
1:15 AM 29.5 °F - 28.2 °F 95% 30.22 in 10.0 mi Calm Calm - N/A   Overcast
1:35 AM 29.1 °F - 27.9 °F 95% 30.22 in 10.0 mi Calm Calm - N/A   Overcast
1:55 AM 29.8 °F - 28.4 °F 94% 30.22 in 10.0 mi Calm Calm - N/A   Overcast
1:15 AM 30.2 °F - 29.1 °F 96% 30.22 in 10.0 mi Calm Calm - N/A   Overcast
1:35 AM 30.7 °F - 29.3 °F 94% 30.23 in 10.0 mi Calm Calm - N/A   Overcast
1:55 AM 31.8 °F - 30.4 °F 94% 30.22 in 10.0 mi Calm Calm - N/A   Overcast
2:15 AM 32.0 °F - 30.9 °F 96% 30.22 in 10.0 mi Calm Calm - N/A   Overcast
2:35 AM 32.0 °F - 30.7 °F 95% 30.23 in 10.0 mi Calm Calm - N/A   Overcast
2:55 AM 32.5 °F - 30.9 °F 94% 30.23 in 10.0 mi Calm Calm - N/A   Overcast
3:15 AM 32.9 °F - 30.9 °F 92% 30.22 in 10.0 mi Calm Calm - N/A   Overcast
3:35 AM 32.9 °F - 31.1 °F 93% 30.23 in 10.0 mi Calm Calm - N/A   Overcast
3:55 AM 33.1 °F - 31.5 °F 94% 30.23 in 10.0 mi Calm Calm - N/A   Overcast
4:15 AM 33.3 °F - 31.1 °F 92% 30.23 in 10.0 mi Calm Calm - N/A   Overcast
4:35 AM 33.3 °F - 31.6 °F 94% 30.23 in 10.0 mi Calm Calm - N/A   Overcast
4:55 AM 33.3 °F - 32.0 °F 95% 30.24 in 7.0 mi Calm Calm - N/A   Overcast
5:15 AM 33.1 °F 30.0 °F 31.8 °F 95% 30.24 in 10.0 mi ENE 3.5 mph - N/A   Overcast
5:35 AM 32.9 °F 29.8 °F 31.8 °F 96% 30.24 in 10.0 mi NE 3.5 mph - N/A   Overcast
5:55 AM 33.1 °F - 32.0 °F 96% 30.24 in 10.0 mi Calm Calm - N/A   Overcast
6:15 AM 33.3 °F 30.2 °F 31.6 °F 94% 30.23 in 10.0 mi NE 3.5 mph - N/A   Overcast
6:35 AM 33.3 °F - 31.3 °F 92% 30.24 in 10.0 mi Calm Calm - N/A   Mostly Cloudy
6:55 AM 32.4 °F - 31.6 °F 97% 30.24 in 7.0 mi Calm Calm - N/A   Mostly Cloudy
7:15 AM 32.0 °F 28.7 °F 30.9 °F 96% 30.25 in 7.0 mi North 3.5 mph - N/A   Overcast
7:35 AM 33.3 °F - 32.0 °F 95% 30.25 in 7.0 mi Calm Calm - N/A   Overcast
7:55 AM 34.7 °F 31.8 °F 32.0 °F 90% 30.25 in 7.0 mi North 3.5 mph - N/A   Overcast
8:15 AM 36.0 °F - 32.0 °F 86% 30.26 in 10.0 mi Calm Calm - N/A   Mostly Cloudy
8:35 AM 37.8 °F 34.2 °F 30.2 °F 74% 30.25 in 10.0 mi NNE 4.6 mph - N/A   Scattered Clouds
8:55 AM 39.7 °F 34.9 °F 30.2 °F 69% 30.25 in 10.0 mi NE 6.9 mph - N/A   Mostly Cloudy
9:15 AM 39.2 °F 35.0 °F 29.5 °F 68% 30.25 in 10.0 mi NE 5.8 mph - N/A   Mostly Cloudy
9:35 AM 40.3 °F 35.5 °F 30.2 °F 67% 30.25 in 10.0 mi North 6.9 mph - N/A   Mostly Cloudy
9:55 AM 40.3 °F 38.2 °F 29.5 °F 65% 30.25 in 10.0 mi North 3.5 mph - N/A   Overcast
10:15 AM 41.2 °F 38.2 °F 29.8 °F 64% 30.25 in 10.0 mi North 4.6 mph - N/A   Overcast
10:35 AM 42.1 °F 38.4 °F 30.2 °F 63% 30.24 in 10.0 mi North 5.8 mph - N/A   Overcast
10:55 AM 42.4 °F 38.8 °F 30.4 °F 62% 30.24 in 10.0 mi NNE 5.8 mph - N/A   Overcast
11:15 AM 43.3 °F 39.2 °F 30.7 °F 61% 30.24 in 10.0 mi North 6.9 mph - N/A   Mostly Cloudy
11:35 AM 45.1 °F 42.8 °F 30.9 °F 58% 30.23 in 10.0 mi NW 4.6 mph - N/A   Scattered Clouds
11:55 AM 45.1 °F 40.8 °F 31.1 °F 58% 30.23 in 10.0 mi NW 8.1 mph - N/A   Mostly Cloudy
12:15 PM 45.5 °F 41.8 °F 30.6 °F 56% 30.22 in 10.0 mi North 6.9 mph - N/A   Overcast
12:35 PM 45.9 °F 41.7 °F 30.9 °F 56% 30.21 in 10.0 mi North 8.1 mph - N/A   Scattered Clouds
12:55 PM 45.7 °F 43.4 °F 30.4 °F 55% 30.21 in 10.0 mi NW 4.6 mph - N/A   Clear
1:15 PM 46.8 °F - 30.7 °F 54% 30.20 in 10.0 mi WNW 8.1 mph - N/A   Scattered Clouds
1:35 PM 47.3 °F - 30.4 °F 52% 30.19 in 10.0 mi NW 4.6 mph - N/A   Scattered Clouds
1:55 PM 47.3 °F - 30.2 °F 52% 30.19 in 10.0 mi North 4.6 mph - N/A   Clear
2:15 PM 46.8 °F - 30.4 °F 53% 30.18 in 10.0 mi North 8.1 mph - N/A   Mostly Cloudy
2:35 PM 46.2 °F 42.7 °F 30.0 °F 53% 30.18 in 10.0 mi NNE 6.9 mph - N/A   Mostly Cloudy
2:55 PM 46.8 °F - 29.3 °F 51% 30.18 in 10.0 mi NNE 5.8 mph - N/A   Scattered Clouds
3:15 PM 45.7 °F 42.0 °F 29.3 °F 53% 30.17 in 10.0 mi North 6.9 mph - N/A   Scattered Clouds
3:35 PM 45.9 °F 42.9 °F 29.1 °F 52% 30.18 in 10.0 mi NNE 5.8 mph - N/A   Clear
3:55 PM 45.5 °F 42.5 °F 28.9 °F 52% 30.18 in 10.0 mi North 5.8 mph - N/A   Clear
4:15 PM 44.6 °F 42.2 °F 29.5 °F 55% 30.17 in 10.0 mi North 4.6 mph - N/A   Scattered Clouds
4:35 PM 43.2 °F 41.5 °F 29.1 °F 58% 30.18 in 10.0 mi North 3.5 mph - N/A   Scattered Clouds
4:55 PM 41.9 °F 40.0 °F 28.6 °F 59% 30.17 in 10.0 mi North 3.5 mph - N/A   Scattered Clouds
5:15 PM 40.1 °F - 29.3 °F 65% 30.17 in 10.0 mi Calm Calm - N/A   Clear
5:35 PM 38.1 °F - 28.2 °F 68% 30.18 in 10.0 mi Calm Calm - N/A   Clear
5:55 PM 36.5 °F 33.9 °F 28.2 °F 72% 30.18 in 10.0 mi ENE 3.5 mph - N/A   Clear
6:15 PM 34.3 °F 31.4 °F 26.8 °F 74% 30.19 in 10.0 mi ENE 3.5 mph - N/A   Clear
6:35 PM 30.9 °F - 25.3 °F 80% 30.19 in 10.0 mi Calm Calm - N/A   Clear
6:55 PM 30.2 °F - 25.7 °F 83% 30.19 in 10.0 mi Calm Calm - N/A   Clear
7:15 PM 31.1 °F 27.7 °F 26.4 °F 83% 30.19 in 10.0 mi ENE 3.5 mph - N/A   Clear
7:35 PM 31.8 °F - 26.8 °F 82% 30.19 in 10.0 mi Calm Calm - N/A   Clear
7:55 PM 31.1 °F - 26.2 °F 82% 30.19 in 10.0 mi Calm Calm - N/A   Clear
8:15 PM 32.7 °F - 27.3 °F 81% 30.19 in 10.0 mi Calm Calm - N/A   Clear
8:35 PM 32.0 °F - 27.3 °F 83% 30.19 in 10.0 mi Calm Calm - N/A   Clear
8:55 PM 29.5 °F - 26.2 °F 88% 30.20 in 10.0 mi Calm Calm - N/A   Clear
9:15 PM 27.9 °F 24.0 °F 24.8 °F 88% 30.20 in 10.0 mi East 3.5 mph - N/A   Clear
9:35 PM 26.1 °F 21.9 °F 23.5 °F 90% 30.20 in 10.0 mi East 3.5 mph - N/A   Clear
9:55 PM 27.0 °F - 24.4 °F 90% 30.20 in 10.0 mi Calm Calm - N/A   Clear
10:15 PM 28.4 °F - 25.3 °F 88% 30.20 in 10.0 mi Calm Calm - N/A   Clear
10:35 PM 24.6 °F - 22.6 °F 92% 30.20 in 10.0 mi Calm Calm - N/A   Clear
10:55 PM 24.8 °F - 23.2 °F 94% 30.20 in 10.0 mi Calm Calm - N/A   Clear